Cordoba, Spain

9:46 PM CEST on August 17, 2017 (GMT +0200)
Cordoba

Weather History for LEBA - August, 2014

Change the Weather History Date:

Friday, August 15, 2014

  Actual Average Record
Temperature  
Mean Temperature 80 °F -  
Max Temperature 99 °F - - ()
Min Temperature 61 °F - - ()
Cooling Degree Days 15    
Growing Degree Days 30 (Base 50)    
Moisture  
Dew Point 46 °F    
Average Humidity 24    
Maximum Humidity 53    
Minimum Humidity 5    
Precipitation  
Precipitation 0.00 in 0.02 in - ()
Sea Level Pressure  
Sea Level Pressure 29.99 in    
Wind  
Wind Speed 4 mph ()    
Max Wind Speed 9 mph    
Max Gust Speed -    
T = Trace of Precipitation, MM = Missing Value Source: Averaged Metar Reports

Daily Weather History Graph

Daily Weather History Graph

Search for Another Location

Airport or City:

Trip Planner

Search our weather history database for the weather conditions in past years. The results will help you decide how hot, cold, wet, or windy it might be!

Date:

Astronomy

Aug. 15, 2014 Rise Set
Actual Time 7:34 AM CEST 9:12 PM CEST
Civil Twilight 7:06 AM CEST 9:40 PM CEST
Nautical Twilight 6:32 AM CEST 10:14 PM CEST
Astronomical Twilight 5:56 AM CEST 10:49 PM CEST
Moon No Moon Rise 12:55 PM CEST (8/15)
Length of Visible Light 14h 33m
Length of Day
13h 37m
Waning Gibbous, 72% of the Moon is Illuminated
Aug 15
Waning Gibbous
Aug 17
Last Quarter
Aug 25
New
Sep 2
First Quarter
Sep 9
Full

Hourly Weather History & Observations

Time (CEST) Temp. Dew Point Humidity Pressure Visibility Wind Dir Wind Speed Gust Speed Precip Events Conditions
12:00 AM 78 °F 45 °F 21% 29.97 in - WSW 8.1 mph - -  
1:00 AM 73 °F 47 °F 28% 29.98 in - West 3.5 mph - -  
2:00 AM 72 °F 47 °F 29% 30.00 in - SW 2.3 mph - -  
3:00 AM 68 °F 50 °F 42% 30.01 in - West 4.6 mph - -  
4:00 AM 65 °F 52 °F 53% 30.02 in - West 5.8 mph - -  
5:00 AM 66 °F 46 °F 37% 30.02 in - West 2.3 mph - -  
6:00 AM 64 °F 51 °F 52% 30.03 in - SW 2.3 mph - -  
7:00 AM 62 °F 48 °F 49% 30.02 in - West 1.2 mph - -  
8:00 AM 63 °F 46 °F 43% 30.04 in 22 mi Calm Calm - -  
9:00 AM 69 °F 48 °F 36% 30.05 in - Calm Calm - -  
10:00 AM 77 °F 46 °F 22% 30.05 in - North 1.2 mph - -  
11:00 AM 84 °F 46 °F 17% 30.05 in 25 mi East 2.3 mph - -  
12:00 PM 87 °F 50 °F 18% 30.04 in - West 1.2 mph - -  
1:00 PM 90 °F 46 °F 13% 30.02 in - West 3.5 mph - -  
2:00 PM 94 °F 45 °F 11% 30.00 in 25 mi WNW 4.6 mph - -  
3:00 PM 97 °F 41 °F 8% 29.97 in - West 4.6 mph - -  
4:00 PM 98 °F 39 °F 6% 29.95 in - West 6.9 mph - -  
5:00 PM 99 °F 37 °F 6% 29.93 in 25 mi SW 9.2 mph - -  
6:00 PM 99 °F 36 °F 5% 29.91 in - WSW 6.9 mph - -  
7:00 PM 98 °F 42 °F 8% 29.91 in - WSW 6.9 mph - -  
8:00 PM 96 °F 41 °F 8% 29.90 in 25 mi West 6.9 mph - -  
9:00 PM 89 °F 47 °F 14% 29.91 in - West 6.9 mph - -  
10:00 PM 81 °F 53 °F 27% 29.93 in - West 6.9 mph - -  
11:00 PM 78 °F 49 °F 26% 29.96 in - WSW 4.6 mph - -